Meteo Giornale » Osservazioni meteo Italia » Genova-Sestri

ore: 04:20 - Osservazioni Meteo Genova-Sestri
Lat. 44° 25' N Lon. 8° 51' E Alt. 2 metri s.l.m.

sereno Europe/Rome

22 °C

Sereno

Temp. 24 Ore

22 °C

27 °C

Nord-Est

13 Km/h

Dew point 16 °C

Umidità 68 %

Visibilità  10 Km

Il sole sorge alle ore 06:03

Il sole tramonta alle ore 20:59

Data e Ora Cielo e Fenomeni T °C DP °C Um. % Pres. hPa Vis. km Vento km/h
Oggi h: 04:20 sereno Sereno 22 16 68 1005 10 NE 13
Oggi h: 03:50 sereno Sereno 23 16 64 1005 10 N/NE 14.8
Oggi h: 03:20 sereno Sereno 23 16 64 1005 10 NE 11.1
Oggi h: 02:50 sereno Sereno 23 15 60 1005 10 N 7.4
Oggi h: 02:20 sereno Sereno 25 14 50 1005 10 N/NE 13
Oggi h: 01:50 sereno Sereno 25 16 57 1005 10 N 14.8
Oggi h: 01:20 sereno Sereno 23 19 78 1005 10 N 5.5
Oggi h: 00:50 poco_nuvoloso Poco Nuvoloso 24 19 73 1005 10 N 5.5
Oggi h: 00:20 poco_nuvoloso Poco Nuvoloso 23 19 78 1005 10 N 9.3
Ieri h: 23:50 poco_nuvoloso Poco Nuvoloso 24 20 78 1004 10 N 7.4
Ieri h: 23:20 poco_nuvoloso Poco Nuvoloso 24 20 78 1005 10 N 5.5
Ieri h: 22:50 poco_nuvoloso Poco Nuvoloso 24 20 78 1004 10 N 3.7
Ieri h: 22:20 poco_nuvoloso Poco Nuvoloso 24 20 78 1005 10 N 3.7
Ieri h: 21:50 poco_nuvoloso Poco Nuvoloso 25 20 73 1004 10 N 5.5
Ieri h: 21:20 nuvoloso Nuvoloso 25 20 73 1004 10 N 7.4
Ieri h: 20:50 nuvoloso Nuvoloso 25 21 78 1004 10 E/SE 16.7
Ieri h: 20:20 nuvoloso Nuvoloso 25 21 78 1003 10 E/SE 20.3
Ieri h: 19:50 nuvoloso_temporali Temporale con Pioggia Debole 25 21 78 1003 10 SE 20.3
Ieri h: 19:20 coperto_temporali Temporale 26 21 73 1003 10 E/SE 24
Ieri h: 18:50 nuvoloso Nuvoloso 26 21 73 1003 10 E/SE 25.9
Ieri h: 16:50 nuvoloso Nuvoloso 26 21 73 1003 10 SE 16.7
Ieri h: 16:20 poco_nuvoloso Poco Nuvoloso 26 20 69 1003 10 E/SE 14.8
Ieri h: 15:50 nuvoloso Nuvoloso 25 21 78 1004 10 S/SE 16.7
Ieri h: 15:20 nuvoloso Nuvoloso 25 21 78 1004 10 SE 14.8
Ieri h: 14:50 nuvoloso Nuvoloso 25 21 78 1004 10 SE 18.5
Ieri h: 14:20 nuvoloso Nuvoloso 26 21 73 1004 10 SE 16.7
Ieri h: 13:50 poco_nuvoloso Poco Nuvoloso 27 22 74 1004 10 SE 20.3
Ieri h: 13:20 poco_nuvoloso Poco Nuvoloso 27 22 74 1004 10 SE 20.3
Ieri h: 12:50 nuvoloso Nuvoloso 27 23 78 1005 10 E/SE 20.3
Ieri h: 12:20 coperto_temporali Temporale Rovescio nelle Vicinanze 27 22 74 1006 10 SE 18.5
Ieri h: 11:50 nuvoloso_temporali Temporale nelle Vicinanze 27 22 74 1005 10 SE 22.2
Ieri h: 11:20 molto_nuvoloso Rovescio nelle Vicinanze 26 22 78 1005 10 SE 24
Ieri h: 10:50 nuvoloso Nuvoloso 27 23 78 1006 10 E/SE 27.8
Ieri h: 10:20 molto_nuvoloso Molto Nuvoloso 26 22 78 1006 10 SE 27.8
Ieri h: 09:50 molto_nuvoloso Molto Nuvoloso 26 22 78 1006 10 SE 27.8
Ieri h: 09:20 molto_nuvoloso Molto Nuvoloso 26 23 83 1006 10 E/SE 27.8
Ieri h: 08:50 molto_nuvoloso Molto Nuvoloso 25 23 88 1006 10 E/SE 27.8
Ieri h: 08:20 molto_nuvoloso Molto Nuvoloso 25 22 83 1006 10 E/SE 20.3
Ieri h: 07:50 molto_nuvoloso Molto Nuvoloso 25 23 88 1006 10 E/SE 13
Ieri h: 07:20 molto_nuvoloso Molto Nuvoloso 25 23 88 1007 9 E/SE 20.3
Ieri h: 06:50 molto_nuvoloso Molto Nuvoloso 25 23 88 1007 10 E/SE 27.8
Ieri h: 06:20 molto_nuvoloso Molto Nuvoloso 25 22 83 1007 10 E/SE 29.6
Ieri h: 05:50 nuvoloso Nuvoloso 25 22 83 1007 10 E/SE 27.8
Ieri h: 05:20 nuvoloso Nuvoloso 25 22 83 1008 10 E/SE 24
Ieri h: 04:50 nuvoloso Nuvoloso 25 22 83 1008 10 SE 25.9